timestamp,wind_dir_avg,wind_spd_avg,wind_spd_max_dir,wind_spd_gust,battery_voltage,lat,long
2022-10-01 00:04:00+00:00,257.0,7.99,256.0,9.97,12.57,47.59359,-54.27349
2022-10-01 00:14:01+00:00,253.0,7.93,259.0,9.83,12.49,47.59359,-54.27349
2022-10-01 00:24:01+00:00,257.0,8.58,257.0,10.38,12.49,47.59359,-54.27349
2022-10-01 00:34:01+00:00,248.0,8.55,251.0,10.43,12.49,47.59359,-54.27349
2022-10-01 00:44:01+00:00,251.0,5.89,256.0,9.54,12.49,47.59359,-54.27349
2022-10-01 00:54:01+00:00,256.0,7.35,262.0,10.0,12.49,47.59359,-54.27349
2022-10-01 01:04:01+00:00,248.0,7.71,256.0,9.84,12.49,47.59359,-54.27349
2022-10-01 01:14:00+00:00,258.0,8.77,258.0,10.29,12.49,47.59359,-54.27349
2022-10-01 01:24:00+00:00,255.0,8.17,260.0,10.36,12.49,47.59359,-54.27349
2022-10-01 01:34:00+00:00,246.0,8.0,241.0,9.09,12.49,47.59359,-54.27349
2022-10-01 01:44:00+00:00,254.0,7.63,261.0,9.35,12.49,47.59359,-54.27349
2022-10-01 01:54:00+00:00,250.0,7.78,252.0,9.11,12.49,47.59359,-54.27349
2022-10-01 02:04:00+00:00,243.0,6.98,252.0,9.58,12.49,47.59359,-54.27349
2022-10-01 02:14:00+00:00,249.0,7.64,250.0,10.2,12.49,47.59359,-54.27349
2022-10-01 02:24:00+00:00,257.0,8.16,262.0,10.26,12.49,47.59359,-54.27349
2022-10-01 02:34:00+00:00,251.0,6.76,259.0,10.08,12.49,47.59359,-54.27349
2022-10-01 02:44:00+00:00,254.0,7.68,257.0,9.66,12.49,47.59359,-54.27349
2022-10-01 02:54:00+00:00,252.0,8.8,252.0,10.08,12.49,47.59359,-54.27349
2022-10-01 03:04:00+00:00,246.0,6.55,253.0,8.49,12.49,47.59359,-54.27349
2022-10-01 03:14:01+00:00,253.0,7.74,259.0,10.06,12.49,47.59359,-54.27349
2022-10-01 03:24:01+00:00,235.0,5.23,240.0,6.4,12.49,47.59359,-54.27349
2022-10-01 03:34:01+00:00,230.0,6.4,238.0,8.32,12.49,47.59359,-54.27349
2022-10-01 03:44:01+00:00,230.0,5.88,236.0,7.28,12.49,47.59359,-54.27349
2022-10-01 03:54:01+00:00,242.0,7.5,245.0,9.84,12.49,47.59359,-54.27349
2022-10-01 04:04:01+00:00,230.0,6.32,239.0,9.48,12.49,47.59359,-54.27349
2022-10-01 04:14:00+00:00,229.0,6.26,239.0,8.54,12.41,47.59359,-54.27349
2022-10-01 04:24:00+00:00,228.0,5.74,231.0,6.85,12.41,47.59359,-54.27349
2022-10-01 04:34:00+00:00,231.0,5.7,232.0,7.18,12.41,47.59359,-54.27349
2022-10-01 04:44:00+00:00,231.0,6.24,236.0,8.05,12.41,47.59359,-54.27349
2022-10-01 04:54:00+00:00,236.0,6.59,241.0,8.57,12.41,47.59359,-54.27349
2022-10-01 05:04:00+00:00,228.0,5.94,232.0,7.21,12.41,47.59359,-54.27349
2022-10-01 05:14:01+00:00,228.0,6.79,237.0,9.37,12.41,47.59359,-54.27349
2022-10-01 05:24:01+00:00,231.0,5.94,247.0,9.17,12.41,47.59359,-54.27349
2022-10-01 05:34:01+00:00,244.0,8.12,246.0,10.25,12.41,47.59359,-54.27349
2022-10-01 05:44:01+00:00,235.0,7.82,241.0,9.9,12.41,47.59359,-54.27349
2022-10-01 05:54:01+00:00,245.0,8.16,250.0,9.02,12.41,47.59359,-54.27349
2022-10-01 06:04:01+00:00,248.0,8.72,257.0,9.91,12.41,47.59359,-54.27349
2022-10-01 06:14:01+00:00,245.0,9.12,242.0,9.98,12.41,47.59359,-54.27349
2022-10-01 06:24:01+00:00,251.0,8.29,250.0,9.11,12.41,47.59359,-54.27349
2022-10-01 06:34:01+00:00,250.0,7.37,255.0,8.19,12.41,47.59359,-54.27349
2022-10-01 06:44:01+00:00,242.0,7.12,250.0,9.89,12.41,47.59359,-54.27349
2022-10-01 06:54:01+00:00,241.0,7.5,240.0,9.37,12.41,47.59359,-54.27349
2022-10-01 07:04:01+00:00,238.0,8.32,245.0,9.81,12.41,47.59359,-54.27349
2022-10-01 07:14:01+00:00,239.0,7.12,244.0,9.21,12.41,47.59359,-54.27349
2022-10-01 07:24:01+00:00,244.0,8.32,252.0,10.11,12.41,47.59359,-54.27349
2022-10-01 07:34:01+00:00,240.0,8.48,241.0,10.36,12.41,47.59359,-54.27349
2022-10-01 07:44:01+00:00,237.0,8.08,241.0,9.5,12.41,47.59359,-54.27349
2022-10-01 07:54:01+00:00,243.0,8.3,244.0,9.94,12.41,47.59359,-54.27349
2022-10-01 08:04:01+00:00,242.0,8.25,238.0,9.82,12.41,47.59359,-54.27349
2022-10-01 08:14:00+00:00,240.0,8.23,242.0,10.27,12.41,47.59359,-54.27349
2022-10-01 08:24:00+00:00,243.0,7.8,254.0,9.62,12.41,47.59359,-54.27349
2022-10-01 08:34:00+00:00,238.0,7.9,240.0,10.02,12.41,47.59359,-54.27349
2022-10-01 08:44:00+00:00,239.0,8.87,246.0,10.45,12.41,47.59359,-54.27349
2022-10-01 08:54:00+00:00,239.0,8.61,240.0,10.69,12.41,47.59359,-54.27349
2022-10-01 09:04:00+00:00,235.0,8.79,238.0,10.89,12.41,47.59359,-54.27349
2022-10-01 09:14:01+00:00,236.0,8.87,244.0,10.36,12.33,47.59359,-54.27349
2022-10-01 09:24:01+00:00,239.0,9.14,248.0,10.63,12.33,47.59359,-54.27349
2022-10-01 09:34:01+00:00,235.0,9.46,242.0,11.44,12.33,47.59359,-54.27349
2022-10-01 09:44:01+00:00,233.0,9.24,237.0,10.79,12.33,47.59359,-54.27349
2022-10-01 09:54:01+00:00,233.0,8.53,238.0,10.96,12.33,47.59359,-54.27349
2022-10-01 10:04:01+00:00,234.0,8.61,239.0,10.51,12.33,47.59359,-54.27349
2022-10-01 10:14:01+00:00,238.0,8.83,241.0,10.14,12.41,47.59359,-54.27349
2022-10-01 10:24:01+00:00,231.0,7.63,233.0,9.13,12.41,47.59359,-54.27349
2022-10-01 10:34:01+00:00,238.0,8.35,241.0,9.72,12.41,47.59359,-54.27349
2022-10-01 10:44:01+00:00,238.0,7.88,242.0,9.21,12.41,47.59359,-54.27349
2022-10-01 10:54:01+00:00,232.0,7.62,237.0,8.88,12.41,47.59359,-54.27349
2022-10-01 11:04:01+00:00,242.0,7.44,249.0,8.79,12.41,47.59359,-54.27349
2022-10-01 11:14:00+00:00,232.0,6.01,234.0,7.58,14.0,47.59359,-54.27349
2022-10-01 11:24:00+00:00,232.0,7.15,236.0,8.55,14.0,47.59359,-54.27349
2022-10-01 11:34:00+00:00,226.0,5.84,233.0,6.88,14.0,47.59359,-54.27349
2022-10-01 11:44:00+00:00,229.0,5.44,230.0,6.26,14.0,47.59359,-54.27349
2022-10-01 11:54:00+00:00,224.0,6.71,232.0,7.78,14.0,47.59359,-54.27349
2022-10-01 12:04:00+00:00,219.0,6.87,220.0,7.93,14.0,47.59359,-54.27349
2022-10-01 13:14:00+00:00,221.0,7.41,236.0,9.26,14.32,47.59359,-54.27349
2022-10-01 13:24:00+00:00,224.0,7.46,238.0,9.51,14.32,47.59359,-54.27349
2022-10-01 13:34:00+00:00,232.0,7.74,238.0,9.99,14.32,47.59359,-54.27349
2022-10-01 13:44:00+00:00,234.0,8.43,243.0,10.05,14.32,47.59359,-54.27349
2022-10-01 13:54:00+00:00,227.0,7.02,233.0,8.79,14.32,47.59359,-54.27349
2022-10-01 14:04:00+00:00,231.0,7.62,239.0,9.74,14.32,47.59359,-54.27349
2022-10-01 14:14:00+00:00,227.0,7.54,236.0,10.01,14.0,47.59359,-54.27349
2022-10-01 14:24:00+00:00,232.0,8.26,242.0,10.55,14.0,47.59359,-54.27349
2022-10-01 14:34:00+00:00,218.0,9.01,228.0,11.54,14.0,47.59359,-54.27349
2022-10-01 14:44:00+00:00,215.0,8.95,225.0,10.63,14.0,47.59359,-54.27349
2022-10-01 14:54:00+00:00,225.0,10.91,230.0,12.26,14.0,47.59359,-54.27349
2022-10-01 15:04:00+00:00,218.0,10.2,219.0,12.05,14.0,47.59359,-54.27349
2022-10-01 15:14:01+00:00,214.0,11.64,215.0,13.24,14.32,47.59359,-54.27349
2022-10-01 15:24:01+00:00,212.0,11.46,219.0,13.28,14.32,47.59359,-54.27349
2022-10-01 15:34:01+00:00,220.0,11.82,220.0,13.67,14.32,47.59359,-54.27349
2022-10-01 15:44:01+00:00,217.0,12.05,219.0,14.08,14.32,47.59359,-54.27349
2022-10-01 15:54:01+00:00,216.0,12.01,222.0,13.86,14.32,47.59359,-54.27349
2022-10-01 16:04:01+00:00,216.0,12.83,213.0,14.3,14.32,47.59359,-54.27349
2022-10-01 16:14:00+00:00,216.0,13.25,219.0,14.64,14.32,47.59359,-54.27349
2022-10-01 16:24:00+00:00,211.0,11.55,221.0,14.28,14.32,47.59359,-54.27349
2022-10-01 16:34:00+00:00,220.0,12.68,221.0,13.96,14.32,47.59359,-54.27349
2022-10-01 16:44:00+00:00,216.0,12.62,220.0,14.78,14.32,47.59359,-54.27349
2022-10-01 16:54:00+00:00,217.0,11.59,223.0,13.7,14.32,47.59359,-54.27349
2022-10-01 17:04:00+00:00,220.0,11.57,227.0,13.61,14.32,47.59359,-54.27349
2022-10-01 17:14:01+00:00,214.0,10.93,224.0,13.07,14.32,47.59359,-54.27349
2022-10-01 17:24:01+00:00,214.0,11.63,221.0,13.9,14.32,47.59359,-54.27349
2022-10-01 17:34:01+00:00,226.0,11.0,225.0,12.79,14.32,47.59359,-54.27349
2022-10-01 17:44:01+00:00,223.0,10.91,229.0,12.33,14.32,47.59359,-54.27349
2022-10-01 17:54:01+00:00,223.0,11.27,227.0,12.46,14.32,47.59359,-54.27349
2022-10-01 18:04:01+00:00,227.0,11.13,229.0,12.71,14.32,47.59359,-54.27349
2022-10-01 18:14:00+00:00,224.0,10.13,224.0,11.6,14.32,47.59359,-54.27349
2022-10-01 18:24:00+00:00,234.0,8.5,234.0,9.24,14.32,47.59359,-54.27349
2022-10-01 18:34:00+00:00,239.0,9.12,242.0,11.04,14.32,47.59359,-54.27349
2022-10-01 18:44:00+00:00,251.0,8.23,251.0,9.9,14.32,47.59359,-54.27349
2022-10-01 18:54:00+00:00,237.0,8.03,236.0,8.96,14.32,47.59359,-54.27349
2022-10-01 19:04:00+00:00,231.0,4.98,233.0,6.65,14.32,47.59359,-54.27349
2022-10-01 19:14:00+00:00,247.0,7.82,252.0,8.53,13.92,47.59359,-54.27349
2022-10-01 19:24:00+00:00,243.0,6.96,235.0,8.1,13.92,47.59359,-54.27349
2022-10-01 19:34:00+00:00,245.0,8.08,248.0,8.66,13.92,47.59359,-54.27349
2022-10-01 19:44:00+00:00,245.0,7.99,248.0,9.31,13.92,47.59359,-54.27349
2022-10-01 19:54:00+00:00,250.0,7.89,250.0,8.46,13.92,47.59359,-54.27349
2022-10-01 20:04:00+00:00,240.0,8.02,238.0,9.3,13.92,47.59359,-54.27349
2022-10-01 20:14:00+00:00,235.0,6.88,237.0,8.02,13.76,47.59359,-54.27349
2022-10-01 20:24:00+00:00,232.0,7.73,231.0,9.41,13.76,47.59359,-54.27349
2022-10-01 20:34:00+00:00,231.0,6.59,232.0,7.97,13.76,47.59359,-54.27349
2022-10-01 20:44:00+00:00,230.0,6.38,233.0,8.02,13.76,47.59359,-54.27349
2022-10-01 20:54:00+00:00,218.0,6.92,228.0,8.07,13.76,47.59359,-54.27349
2022-10-01 21:04:00+00:00,229.0,7.52,237.0,9.47,13.76,47.59359,-54.27349
2022-10-01 21:14:01+00:00,239.0,5.61,239.0,7.15,13.05,47.59359,-54.27349
2022-10-01 21:24:01+00:00,229.0,6.18,235.0,7.24,13.05,47.59359,-54.27349
2022-10-01 21:34:01+00:00,235.0,8.15,239.0,10.11,13.05,47.59359,-54.27349
2022-10-01 21:44:01+00:00,237.0,8.3,241.0,11.09,13.05,47.59359,-54.27349
2022-10-01 21:54:01+00:00,239.0,7.07,240.0,10.48,13.05,47.59359,-54.27349
2022-10-01 22:04:01+00:00,242.0,9.02,246.0,10.55,13.05,47.59359,-54.27349
2022-10-01 22:14:00+00:00,245.0,9.53,245.0,11.35,12.57,47.59359,-54.27349
2022-10-01 22:24:00+00:00,246.0,8.51,251.0,10.65,12.57,47.59359,-54.27349
2022-10-01 22:34:00+00:00,251.0,7.95,252.0,10.04,12.57,47.59359,-54.27349
2022-10-01 22:44:00+00:00,254.0,8.15,259.0,10.16,12.57,47.59359,-54.27349
2022-10-01 22:54:00+00:00,248.0,8.34,244.0,9.12,12.57,47.59359,-54.27349
2022-10-01 23:04:00+00:00,248.0,8.4,249.0,10.93,12.57,47.59359,-54.27349
2022-10-01 23:14:00+00:00,253.0,8.31,258.0,10.07,12.57,47.59359,-54.27349
2022-10-01 23:24:00+00:00,258.0,7.85,256.0,8.9,12.57,47.59359,-54.27349
2022-10-01 23:34:00+00:00,257.0,8.6,256.0,10.65,12.57,47.59359,-54.27349
2022-10-01 23:44:00+00:00,252.0,9.06,255.0,10.88,12.57,47.59359,-54.27349
2022-10-01 23:54:00+00:00,261.0,8.96,263.0,10.4,12.57,47.59359,-54.27349
